Location: ??
(34.6897°N, 135.6274°E)
Time: 20:25:10
(UTC+00:00)

Daily predictions for brighter satellites

Satellite Brightness Start Highest point End
(mag) Time Altitude Azimuth Time Altitude Azimuth Time Altitude Azimuth
NOSS 3-4 (A) 4.1 12:02:32 10° NW 12:09:44 64° WSW 12:10:40 59° SSW
NOSS 3-4 (C) 4.1 12:02:39 10° NW 12:09:51 64° WSW 12:10:46 60° SSW
Terra 4.5 12:28:04 12° N 12:28:04 12° N 12:28:27 10° N
USA 234 4.4 12:26:11 10° NNE 12:32:11 40° NW 12:38:10 10° WSW
ATLAS 2AS CENTAUR R/B 3.9 12:35:20 10° NW 12:41:31 32° WSW 12:41:31 32° WSW
CZ-4C R/B 4.5 12:51:30 10° N 12:56:07 24° NNE 12:56:07 24° NNE
USA 267 4.2 16:57:49 10° NE 17:02:06 42° ENE 17:02:06 42° ENE
ARIANE 5 R/B 4.5 17:06:46 10° NNE 17:09:17 26° NE 17:09:17 26° NE
USA 238 DEB 4.2 17:21:48 52° NNE 17:21:48 52° NNE 17:26:48 10° NNE
USA 238 4.2 17:21:53 53° NNE 17:21:53 53° NNE 17:26:55 10° NNE
CZ-2D R/B 4.4 17:17:43 10° N 17:19:08 17° NNW 17:19:08 17° NNW
Cosmos 2237 Rocket 3.8 17:27:27 10° NNW 17:30:08 28° N 17:30:08 28° N
NOSS 3-2 (A) 4.1 17:45:55 45° N 17:45:55 45° N 17:50:32 10° NNE
Cosmos 2297 Rocket 3.3 17:49:23 37° N 17:49:23 37° N 17:52:57 10° NNE
CENTAUR R/B 2.6 17:50:17 67° ENE 17:50:17 67° ENE 17:56:08 10° NE
Cosmos 2279 Rocket 4.4 17:49:51 10° N 17:56:01 58° E 17:58:21 37° SE
Meteor 1-18 Rocket 4.5 18:02:15 63° N 18:02:15 63° N 18:07:03 10° N
Cosmos 1048 Rocket 4.2 18:05:52 10° NNW 18:11:13 70° ENE 18:12:43 47° SE
BREEZE-M DEB 4.1 18:12:46 60° WNW 18:13:21 64° NNW 18:28:16 10° NE
Cosmos 2227 Rocket 3.2 18:15:14 33° NW 18:15:14 33° NW 18:19:13 10° N
Sich 1 Rocket 4.4 18:10:08 10° N 18:13:23 46° NNE 18:13:23 46° NNE
Cosmos 1125 Rocket 3.9 18:16:17 52° NNW 18:16:17 52° NNW 18:20:35 10° N
NOSS 3-2 (C) 3.5 18:16:09 55° NW 18:16:09 55° NW 18:22:04 10° NNE
ADEOS II 3.8 18:22:02 10° NNW 18:24:24 20° NW 18:24:24 20° NW
Cosmos 2180 Rocket 4.5 18:21:49 10° N 18:28:04 84° E 18:33:39 14° S
STARLINK-1067 4.4 18:30:47 44° N 18:30:47 44° N 18:34:03 10° NE
STARLINK-1058 4.4 18:35:33 43° NNW 18:35:33 43° NNW 18:38:58 10° NE
CZ-2C R/B 4.0 18:32:52 10° N 18:35:18 32° NNW 18:35:18 32° NNW
STARLINK-1043 4.4 18:40:20 41° NNW 18:40:20 41° NNW 18:43:55 10° NNE
STARLINK-1065 4.4 18:41:00 40° NNW 18:41:00 40° NNW 18:44:36 10° NNE
IDEFIX/ARIANE 42P 2.5 18:35:39 10° N 18:40:48 64° WNW 18:41:33 57° WSW
Gbstr 26 Del rocket 4.3 18:42:48 31° SSW 18:45:41 55° SE 18:51:02 10° ENE
ATLAS 3B R/B 2.5 18:44:14 40° SW 18:46:50 78° WNW 18:53:30 10° NNE
USA 267 4.1 18:41:12 10° NNE 18:46:59 35° NW 18:49:27 27° WNW
Meteor 1-13 Rocket 4.2 18:43:43 25° S 18:47:14 86° E 18:52:56 10° N
Shenzhou-11 Module 4.4 18:48:57 15° ESE 18:48:57 15° ESE 18:49:53 10° E
ARIANE 5 R/B 4.1 18:46:37 10° NNW 18:49:38 20° NW 18:49:38 20° NW
SL-16 R/B 2.1 18:47:54 10° NNW 18:53:35 79° WSW 18:59:13 10° SSE
CZ-2C R/B 2.7 18:52:41 10° NNE 18:57:12 59° E 19:01:33 11° S
ADEOS 3.6 18:59:17 10° NNE 19:04:32 84° ESE 19:09:28 11° SSW
Meteor 1-12 Rocket 4.2 19:01:03 10° NNW 19:06:59 75° W 19:12:46 10° S
Meteor 1-23 Rocket 4.4 19:05:56 10° S 19:11:36 74° E 19:17:21 10° NNE
PAYLOAD A 4.0 19:08:09 10° N 19:13:31 75° WNW 19:18:17 12° SSW
Cosmos 1674 Rocket 3.6 19:14:01 22° SSW 19:16:46 59° W 19:21:06 10° N
USA 234 4.0 19:11:37 10° ESE 19:17:57 55° NE 19:24:17 10° NW
CZ-4B R/B 1.9 19:18:55 31° SW 19:19:57 40° W 19:23:16 10° NNW
SeaSat 1 3.7 19:15:57 10° SE 19:20:35 43° ENE 19:25:15 10° N
Cosmos 1092 Rocket 4.0 19:14:42 10° SSW 19:21:01 71° W 19:27:20 10° N
Cosmos 2263 Rocket 2.1 19:18:07 13° SSW 19:23:16 83° WNW 19:28:59 10° NNE
Meteor 1-4 Rocket 3.4 19:22:46 29° W 19:23:24 31° WNW 19:26:47 10° NNW
ATLAS 5 CENTAUR R/B 3.3 19:17:30 10° NNW 19:23:25 55° ENE 19:30:06 10° SE
Cosmos 1818 3.5 19:23:22 10° NNW 19:28:48 79° WSW 19:34:12 10° SSE
Cosmos 2026 Rocket 3.9 19:26:23 10° S 19:32:30 80° W 19:38:35 10° N
Cosmos 1484 Rocket 3.7 19:29:01 10° NNE 19:32:41 48° E 19:36:17 10° S
EPKM 4.1 19:32:29 11° SSW 19:33:13 11° S 19:34:08 10° SSE
Cosmos 1867 4.0 19:33:38 18° WSW 19:37:21 43° WNW 19:42:34 10° NNE
CZ-4B R/B 3.6 19:33:26 10° NNE 19:37:49 63° E 19:42:16 10° S
Cosmos 1378 3.4 19:36:11 10° S 19:39:51 72° E 19:43:35 10° N
CENTAUR R/B 4.1 19:37:27 12° W 19:41:06 20° NW 19:45:54 10° N
Cosmos 1428 Rocket 4.4 19:36:28 10° SSW 19:42:34 74° W 19:48:45 10° N
Cosmos 1378 Rocket 4.5 19:51:56 10° SW 19:55:38 28° WNW 19:59:23 10° NNW
Okean O Rocket 4.5 19:55:30 10° NE 19:58:52 21° E 20:02:13 10° SE
Cosmos 1437 Rocket 3.1 19:55:29 10° SSW 19:59:25 48° W 20:03:23 10° N
Cosmos 2251 Rocket 3.8 19:56:24 10° NNW 20:01:45 76° ENE 20:07:01 10° SSE
Cosmos 1455 Rocket 4.4 19:59:29 10° N 20:03:48 47° E 20:08:05 10° SSE
Cosmos 1655 Rocket 4.2 20:00:50 10° S 20:07:12 85° E 20:13:34 10° N
ATLAS 5 CENTAUR R/B 3.3 20:05:35 10° WSW 20:09:15 19° WNW 20:11:21 10° NNW
Cosmos 1943 3.2 20:06:47 10° NNW 20:12:31 82° WSW 20:18:11 10° SSE
